DECAYED

STARLINK-30513, 58071 (Decayed)

Orbit data source: Space-Track

STARLINK-30513, 58071 was a payload satellite owned by SpaceX/Seattle (US) in LEO that was launched on Fri, 13 Oct 2023 UTC via an FALCON 9 launch vehicle from the Air Force Eastern Test Range (AFETR). Payload-class satellites include a variety of spacecraft equipped with specific instruments for various scientific and technological missions. These include communications satellites like Starlink; space stations such as the ISS; scientific satellites like the Hubble; Earth observation satellites from companies like Planet Labs, Umbra, and HawkEye 360; GPS; miniature CubeSats for education and research; and military/defense satellites.

Not visible in the next 10 days
Identifier
58071, 2023-158W
Orbit
Decayed
Country
Flag of USUS
Related business
Manufacturer
SpaceX/Seattle
Mission
Decayed Commercial Communications
Bus & Motor
STARLINK V2M, Unknown motor
Mass
730 kg wet, ~700 kg dry
Launch date (UTC)
2023-10-13 (3 years ago)
Launch vehicle
FALCON 9
Launch site
Air Force Eastern Test Range (AFETR)
Object type
Payload
Rocket body
Debris
Shape & HBR
Box + 2 Pan, 17.7 m
Radar Cross Section
33.884 m², Large (>1 m²)

Expand to show TLE details & history
Last TLE update: 3 months ago

TLE from 3 months ago
0 STARLINK-30513
1 58071U 23158W   26077.30903155  .18368292  90598-5  26687-2 0  9994
2 58071  42.9695  26.9179 0009373 222.9240 137.0919 16.33491655138505
Epoch: 2026-03-18T07:25Z
TLE epoch observation values (Epoch: 2026-03-18T07:25:00.325Z)
Latitude
-0.00006°
Longitude
99.79183°
Altitude
187.441 km
Speed
7.793 km/s
True Right ascension
01h 47m 40s
True Declination
0° 00' 00"
Sunlit
Object was in daylight at epoch
Visualization orbit readout
Latitude
Unknown
Longitude
Unknown
Altitude
Unknown
Speed
Unknown
Apparent Right ascension
Unknown
Apparent Declination
Unknown
Sunlit
N/A
Visualization observer readout
Local Sidereal Time
21:26:49
Azimuth
Unknown
Elevation
Unknown
Doppler factor
Unknown
Orbital elements
Apogee altitude
191.364 km
Perigee altitude
179.06 km
Semi-major axis
6,563.349 km
Eccentricity
0.00094
Inclination
42.9695°
RAAN
26.9179°
Arg. of periapsis
222.924°
True anomaly
137.16496°
Mean anomaly
137.0919°
Eccentric anomaly
137.12844°
Mean motion
4.08183 °/min
Orbital period
88.2 mins
BSTAR
0.0026687
Loading maneuver chart data...
Computing Atmospheric mass density...
Loading historical data...
Loading historical data...
Loading historical data...
Loading historical data...
Loading historical data...
Loading historical data...
Loading historical data...

Documentation

Showing up to 5 results
|